DECAYED

STARLINK-33906, 63785 (Decayed)

Orbit data source: Space-Track

STARLINK-33906, 63785 was a payload satellite owned by SpaceX/Seattle (US) in LEO that was launched on Fri, 02 May 2025 UTC via an FALCON 9 launch vehicle from the Air Force Eastern Test Range (AFETR). Payload-class satellites include a variety of spacecraft equipped with specific instruments for various scientific and technological missions. These include communications satellites like Starlink; space stations such as the ISS; scientific satellites like the Hubble; Earth observation satellites from companies like Planet Labs, Umbra, and HawkEye 360; GPS; miniature CubeSats for education and research; and military/defense satellites.

Not visible in the next 10 days
Identifier
63785, 2025-091L
Orbit
Decayed
Country
Flag of USUS
Related business
Manufacturer
SpaceX/Seattle
Mission
Decayed Commercial Communications
Bus & Motor
STARLINK V2MO, Unknown motor
Mass
575 kg wet, ~530 kg dry
Launch date (UTC)
2025-05-02 (1 year ago)
Launch vehicle
FALCON 9
Launch site
Air Force Eastern Test Range (AFETR)
Object type
Payload
Rocket body
Debris
Shape & HBR
Box + 2 Pan, 17.7 m
Radar Cross Section
36.964 m², Large (>1 m²)

Expand to show TLE details & history
Last TLE update: 2 months ago

TLE from 2 months ago
0 STARLINK-33906
1 63785U 25091L   26125.23113787  .16597876  90645-5  32119-2 0  9990
2 63785  42.9922  83.1305 0005177 221.3841 138.6657 16.30754173 57612
Epoch: 2026-05-05T05:32Z
TLE epoch observation values (Epoch: 2026-05-05T05:32:50.311Z)
Latitude
-0.00002°
Longitude
136.8119°
Altitude
192.832 km
Speed
7.791 km/s
True Right ascension
05h 32m 31s
True Declination
0° 00' 00"
Sunlit
Object was in daylight at epoch
Visualization orbit readout
Latitude
Unknown
Longitude
Unknown
Altitude
Unknown
Speed
Unknown
Apparent Right ascension
Unknown
Apparent Declination
Unknown
Sunlit
N/A
Visualization observer readout
Local Sidereal Time
07:17:01
Azimuth
Unknown
Elevation
Unknown
Doppler factor
Unknown
Orbital elements
Apogee altitude
195.948 km
Perigee altitude
189.145 km
Semi-major axis
6,570.684 km
Eccentricity
0.00052
Inclination
42.9922°
RAAN
83.1305°
Arg. of periapsis
221.3841°
True anomaly
138.70486°
Mean anomaly
138.6657°
Eccentric anomaly
138.68528°
Mean motion
4.075 °/min
Orbital period
88.34 mins
BSTAR
0.0032119
Loading maneuver chart data...
Computing Atmospheric mass density...
Loading historical data...
Loading historical data...
Loading historical data...
Loading historical data...
Loading historical data...
Loading historical data...
Loading historical data...

Documentation

Showing up to 5 results
|